Location: Leiter
(44.7178°N, 106.2687°W)
Time: 10:35:23
(UTC+00:00)

YUBILEINY - Visible Passes

Search period start: 29 June 2022 00:00
Search period end: 09 July 2022 00:00
Orbit: 1479 x 1507 km, 82.5° (Epoch: 28 June)

Date Brightness Start Highest point End Pass type
(mag) Time Alt. Az. Time Alt. Az. Time Alt. Az.
29 Jun ? 09:28:53 10° NNE 09:34:17 17° NE 09:39:38 10° E visible
30 Jun ? 10:34:38 10° N 10:42:58 43° ENE 10:51:11 10° SE visible
01 Jul ? 09:45:39 10° N 09:52:40 25° ENE 09:59:35 10° ESE visible
02 Jul ? 08:57:32 10° NNE 09:01:54 14° NE 09:06:14 10° E visible
03 Jul ? 10:02:47 10° N 10:10:49 37° ENE 10:18:44 10° SE visible
04 Jul ? 09:13:57 10° NNE 09:20:23 22° ENE 09:26:44 10° ESE visible
05 Jul ? 08:26:33 10° NNE 08:29:27 12° NE 08:32:22 10° ENE visible
05 Jul ? 10:20:09 10° N 10:28:45 54° ENE 10:37:15 10° SSE visible
06 Jul ? 09:30:58 10° N 09:38:37 32° ENE 09:46:10 10° SE visible
07 Jul ? 08:42:23 10° NNE 08:48:04 18° ENE 08:53:41 10° E visible
07 Jul ? 10:37:40 10° N 10:46:31 78° E 10:55:15 10° SSE visible
08 Jul ? 09:48:15 10° N 09:56:39 46° ENE 10:04:56 10° SE visible
